FW2601 Weather Reports


Display with metric or nautical units.
time (UTC)temp
F
wind
direction
speed
MPH
gust
MPH
rain 1hr
in
rain 24hr
in
rain mn
in
humidity
%
barometer
mb
20260506233926 46 0 3.0 6.0 0.00 0.00 0.00 85 1014.5
20260506233202 47 0 4.0 6.0 0.00 0.00 0.00 85 1014.5
20260506232702 47 0 3.0 6.0 0.00 0.00 0.00 85 1014.5
20260506232429 47 0 3.0 7.0 0.00 0.00 0.00 85 1014.4
20260506231703 47 0 3.0 7.0 0.00 0.00 0.00 85 1014.4
20260506231202 47 0 3.0 6.0 0.00 0.00 0.00 85 1014.4
20260506230702 47 0 3.0 9.0 0.00 0.00 0.00 85 1014.4
20260506230202 47 0 4.0 9.0 0.00 0.00 0.00 85 1014.5
20260506225703 47 0 4.0 7.0 0.00 0.00 0.00 85 1014.4
20260506225203 47 0 5.0 9.0 0.00 0.00 0.00 85 1014.4
20260506224702 47 0 4.0 9.0 0.00 0.00 0.00 85 1014.4
20260506224431 47 0 4.0 9.0 0.00 0.00 0.00 85 1014.4
20260506223702 47 0 4.0 9.0 0.00 0.00 0.00 85 1014.3
20260506223202 47 0 3.0 5.0 0.00 0.00 0.00 85 1014.3
20260506222703 48 0 4.0 7.0 0.00 0.00 0.00 85 1014.2
20260506222204 48 0 3.0 7.0 0.00 0.00 0.00 85 1014.1
20260506221705 48 0 2.0 9.0 0.00 0.00 0.00 85 1014.2
20260506221203 48 0 4.0 9.0 0.00 0.00 0.00 85 1014.1
20260506220703 48 0 4.0 9.0 0.00 0.00 0.00 85 1014.1
20260506220202 49 0 3.0 7.0 0.00 0.00 0.00 84 1014.1
20260506215703 49 0 3.0 7.0 0.00 0.00 0.00 84 1014.1
20260506215202 49 0 4.0 7.0 0.00 0.00 0.00 84 1014.0
20260506214703 49 0 4.0 7.0 0.00 0.00 0.00 84 1014.0
20260506214157 49 0 3.0 7.0 0.00 0.00 0.00 84 1014.0
20260506213656 49 0 4.0 6.0 0.00 0.00 0.00 84 1013.9
20260506213420 49 0 4.0 7.0 0.00 0.00 0.00 84 1013.9
20260506212656 50 0 4.0 7.0 0.00 0.00 0.00 83 1013.8
20260506212156 50 0 4.0 9.0 0.00 0.00 0.00 83 1013.7
20260506211914 50 0 3.0 9.0 0.00 0.00 0.00 83 1013.8
20260506211150 50 0 5.0 11.0 0.00 0.00 0.00 83 1013.8
20260506210646 50 0 6.0 11.0 0.00 0.00 0.00 82 1013.7
20260506210147 50 0 4.0 11.0 0.00 0.00 0.00 82 1013.6
20260506205645 50 0 4.0 11.0 0.00 0.00 0.00 82 1013.6
20260506205141 50 0 4.0 10.0 0.00 0.00 0.00 82 1013.5
20260506204901 51 0 4.0 10.0 0.00 0.00 0.00 81 1013.6
20260506204139 51 0 6.0 10.0 0.00 0.00 0.00 81 1013.5
20260506203639 51 0 3.0 11.0 0.00 0.00 0.00 81 1013.5
20260506203138 51 0 7.0 12.0 0.00 0.00 0.00 80 1013.5
20260506202637 51 0 5.0 12.0 0.00 0.00 0.00 80 1013.6
20260506202137 51 0 6.0 12.0 0.00 0.00 0.00 80 1013.4
20260506201638 51 0 6.0 12.0 0.00 0.00 0.00 79 1013.4
20260506201135 51 0 5.0 11.0 0.00 0.00 0.00 79 1013.5
20260506200636 51 0 5.0 10.0 0.00 0.00 0.00 79 1013.3
20260506200134 51 0 5.0 10.0 0.00 0.00 0.00 78 1013.3
20260506195633 52 0 4.0 10.0 0.00 0.00 0.00 78 1013.3
20260506195132 52 0 6.0 11.0 0.00 0.00 0.00 78 1013.1
20260506194633 52 0 5.0 12.0 0.00 0.00 0.00 78 1013.0
20260506194359 52 0 5.0 12.0 0.00 0.00 0.00 77 1012.9
20260506193634 53 0 6.0 13.0 0.00 0.00 0.00 76 1013.0
20260506193131 53 0 5.0 13.0 0.00 0.00 0.00 76 1012.9
20260506192632 53 0 8.0 12.0 0.00 0.00 0.00 76 1012.8
20260506192131 53 0 6.0 12.0 0.00 0.00 0.00 76 1012.8
20260506191631 53 0 6.0 13.0 0.00 0.00 0.00 75 1012.7
20260506191131 53 0 7.0 13.0 0.00 0.00 0.00 74 1012.6
20260506191123 54 0 4.0 11.0 0.00 0.00 0.00 74 1012.5
20260506190400 54 0 5.0 12.0 0.00 0.00 0.00 73 1012.5
20260506185630 54 0 7.0 15.0 0.00 0.00 0.00 73 1012.3
20260506185133 54 0 6.0 15.0 0.00 0.00 0.00 72 1012.3
20260506184632 54 0 5.0 13.0 0.00 0.00 0.00 73 1012.2
20260506184132 54 0 6.0 14.0 0.00 0.00 0.00 73 1012.2
20260506183631 54 0 5.0 14.0 0.00 0.00 0.00 72 1012.2
20260506183131 54 0 7.0 20.0 0.00 0.00 0.00 72 1012.0
20260506182631 55 0 7.0 20.0 0.00 0.00 0.00 71 1012.1
20260506182132 55 0 8.0 12.0 0.00 0.00 0.00 71 1011.9
20260506181632 55 0 4.0 14.0 0.00 0.00 0.00 72 1012.0
20260506181130 55 0 5.0 14.0 0.00 0.00 0.00 72 1011.9
20260506180857 55 0 7.0 13.0 0.00 0.00 0.00 71 1011.8
20260506180130 55 0 7.0 13.0 0.00 0.00 0.00 71 1011.8
20260506175855 55 0 5.0 14.0 0.00 0.00 0.00 71 1011.8
20260506175132 55 0 7.0 16.0 0.00 0.00 0.00 70 1011.7
20260506174632 56 0 7.0 16.0 0.00 0.00 0.00 70 1011.7
20260506174131 56 0 5.0 13.0 0.00 0.00 0.00 71 1011.5
20260506173853 56 0 8.0 14.0 0.00 0.00 0.00 71 1011.5
20260506173131 56 0 7.0 14.0 0.00 0.00 0.00 70 1011.5
20260506172631 56 0 7.0 15.0 0.00 0.00 0.00 71 1011.4
20260506172130 56 0 8.0 15.0 0.00 0.00 0.00 71 1011.4
20260506171633 56 0 4.0 16.0 0.00 0.00 0.00 72 1011.3
20260506171132 56 0 8.0 18.0 0.00 0.00 0.00 72 1011.3
20260506170632 56 0 9.0 18.0 0.00 0.00 0.00 72 1011.3
20260506170133 56 0 8.0 18.0 0.00 0.00 0.00 71 1011.3
20260506165858 56 0 4.0 18.0 0.00 0.00 0.00 71 1011.2
20260506165132 57 0 9.0 19.0 0.00 0.00 0.00 71 1011.2
20260506164631 57 0 7.0 19.0 0.00 0.00 0.00 72 1011.1
20260506164357 57 0 8.0 18.0 0.00 0.00 0.00 71 1011.2
20260506163632 57 0 5.0 18.0 0.00 0.00 0.00 71 1011.2
20260506163131 58 0 9.0 17.0 0.00 0.00 0.00 71 1010.9
20260506162631 58 0 8.0 16.0 0.00 0.00 0.00 72 1010.9
20260506162153 58 0 9.0 15.0 0.00 0.00 0.00 70 1011.0
20260506162146 58 0 9.0 16.0 0.00 0.00 0.00 70 1011.0
20260506161140 58 0 7.0 16.0 0.00 0.00 0.00 69 1011.0
20260506160638 58 0 11.0 16.0 0.00 0.00 0.00 70 1011.0
20260506160140 58 0 9.0 13.0 0.00 0.00 0.00 70 1011.0
20260506155639 58 0 4.0 12.0 0.00 0.00 0.00 72 1010.9
20260506155354 58 0 8.0 13.0 0.00 0.00 0.00 71 1011.0
20260506154627 58 0 7.0 13.0 0.00 0.00 0.00 70 1011.0
20260506154125 59 0 7.0 14.0 0.00 0.00 0.00 68 1011.1
20260506153626 59 0 7.0 14.0 0.00 0.00 0.00 69 1011.0
20260506153128 59 0 8.0 17.0 0.00 0.00 0.00 71 1010.9
20260506152625 59 0 7.0 17.0 0.00 0.00 0.00 70 1010.9
20260506152126 58 0 9.0 16.0 0.00 0.00 0.00 69 1010.8
20260506151624 58 0 8.0 16.0 0.00 0.00 0.00 70 1010.8
20260506151124 58 0 7.0 15.0 0.00 0.00 0.00 70 1010.9
20260506150624 58 0 8.0 15.0 0.00 0.00 0.00 70 1010.7
20260506150126 57 0 8.0 15.0 0.00 0.00 0.00 70 1010.7
20260506145624 57 0 8.0 16.0 0.00 0.00 0.00 70 1010.8
20260506145358 57 0 6.0 16.0 0.00 0.00 0.00 71 1010.7
20260506144625 56 0 7.0 16.0 0.00 0.00 0.00 72 1010.8
20260506144124 56 0 5.0 15.0 0.00 0.00 0.00 73 1010.8
20260506143850 56 0 7.0 17.0 0.00 0.00 0.00 72 1010.9
20260506143123 56 0 8.0 17.0 0.00 0.00 0.00 71 1010.8
20260506142625 56 0 6.0 15.0 0.00 0.00 0.00 72 1010.7
20260506142125 57 0 8.0 15.0 0.00 0.00 0.00 72 1010.8
20260506141625 56 0 7.0 15.0 0.00 0.00 0.00 72 1010.7
20260506141125 57 0 8.0 17.0 0.00 0.00 0.00 71 1010.8
20260506140624 57 0 7.0 17.0 0.00 0.00 0.00 71 1010.8
20260506140125 57 0 5.0 17.0 0.00 0.00 0.00 72 1010.8
20260506135625 56 0 6.0 17.0 0.00 0.00 0.00 72 1010.8
20260506135123 57 0 9.0 15.0 0.00 0.00 0.00 73 1010.8
20260506134624 57 0 5.0 15.0 0.00 0.00 0.00 73 1010.7
20260506134123 57 0 7.0 15.0 0.00 0.00 0.00 72 1010.7
20260506133624 57 0 6.0 16.0 0.00 0.00 0.00 72 1010.7
20260506133122 57 0 8.0 16.0 0.00 0.00 0.00 73 1010.7
20260506132624 57 0 9.0 16.0 0.00 0.00 0.00 72 1010.7
20260506132122 57 0 9.0 16.0 0.00 0.00 0.00 71 1010.6
20260506131622 57 0 6.0 16.0 0.00 0.00 0.00 71 1010.5
20260506131121 57 0 7.0 16.0 0.00 0.00 0.00 71 1010.4
20260506130847 58 0 8.0 15.0 0.00 0.00 0.00 70 1010.4
20260506130121 58 0 6.0 13.0 0.00 0.00 0.00 71 1010.5
20260506125621 58 0 8.0 13.0 0.00 0.00 0.00 69 1010.5
20260506125345 58 0 7.0 13.0 0.00 0.00 0.00 69 1010.5
20260506124622 58 0 6.0 16.0 0.00 0.00 0.00 66 1010.4
20260506124351 57 0 7.0 16.0 0.00 0.00 0.00 65 1010.5
20260506123622 58 0 8.0 17.0 0.00 0.00 0.00 66 1010.4
20260506123122 58 0 6.0 17.0 0.00 0.00 0.00 68 1010.5
20260506122621 58 0 7.0 14.0 0.00 0.00 0.00 67 1010.4
20260506122122 58 0 9.0 18.0 0.00 0.00 0.00 67 1010.4
20260506121619 58 0 10.0 18.0 0.00 0.00 0.00 66 1010.4
20260506121353 58 0 6.0 15.0 0.00 0.00 0.00 67 1010.4
20260506120620 58 0 9.0 15.0 0.00 0.00 0.00 68 1010.4
20260506120120 58 0 8.0 14.0 0.00 0.00 0.00 70 1010.3
20260506115618 57 0 6.0 11.0 0.00 0.00 0.00 69 1010.4
20260506115120 57 0 7.0 11.0 0.00 0.00 0.00 71 1010.3
20260506114618 57 0 5.0 12.0 0.00 0.00 0.00 69 1010.4
20260506114118 57 0 7.0 12.0 0.00 0.00 0.00 69 1010.3
20260506113618 58 0 10.0 11.0 0.00 0.00 0.00 69 1010.4
20260506113120 58 0 9.0 13.0 0.00 0.00 0.00 69 1010.4
20260506112619 58 0 9.0 13.0 0.00 0.00 0.00 70 1010.5
20260506112344 58 0 7.0 9.0 0.00 0.00 0.00 69 1010.4
20260506111845 59 0 6.0 9.0 0.00 0.00 0.00 69 1010.4
20260506111119 59 0 5.0 7.0 0.00 0.00 0.00 69 1010.3
20260506110617 59 0 11.0 13.0 0.00 0.00 0.00 70 1010.3
20260506110121 59 0 11.0 13.0 0.00 0.00 0.00 70 1010.3
20260506105619 59 0 9.0 9.0 0.00 0.00 0.00 69 1010.3
20260506105117 59 0 5.0 17.0 0.00 0.00 0.00 70 1010.4
20260506104617 59 0 9.0 17.0 0.00 0.00 0.00 69 1010.4
20260506104119 59 0 9.0 14.0 0.00 0.00 0.00 71 1010.3
20260506103617 58 0 10.0 14.0 0.00 0.00 0.00 72 1010.3
20260506103117 58 0 12.0 12.0 0.00 0.00 0.00 70 1010.4
20260506102617 58 0 9.0 15.0 0.00 0.00 0.00 72 1010.4
20260506102118 58 0 8.0 15.0 0.00 0.00 0.00 70 1010.3
20260506101836 58 0 9.0 13.0 0.00 0.00 0.00 71 1010.4
20260506101118 58 0 8.0 14.0 0.00 0.00 0.00 75 1010.3
20260506100619 57 0 11.0 14.0 0.00 0.00 0.00 74 1010.3
20260506100117 57 0 7.0 14.0 0.00 0.00 0.00 73 1010.3
20260506095618 57 0 9.0 13.0 0.00 0.00 0.00 74 1010.3
20260506095116 57 0 9.0 13.0 0.00 0.00 0.00 75 1010.2
20260506094842 57 0 6.0 16.0 0.00 0.00 0.00 74 1010.2
20260506094116 57 0 10.0 17.0 0.00 0.00 0.00 75 1010.3
20260506093616 57 0 8.0 17.0 0.00 0.00 0.00 74 1010.2
20260506093115 57 0 5.0 17.0 0.00 0.00 0.00 73 1010.3
20260506092615 57 0 9.0 15.0 0.00 0.00 0.00 73 1010.1
20260506092115 57 0 7.0 13.0 0.00 0.00 0.00 76 1010.1
20260506091616 57 0 9.0 13.0 0.00 0.00 0.00 75 1010.0
20260506091115 58 0 4.0 13.0 0.00 0.00 0.00 75 1010.0
20260506090616 58 0 8.0 14.0 0.00 0.00 0.00 75 1010.0
20260506090344 58 0 6.0 14.0 0.00 0.00 0.00 76 1009.9
20260506085615 57 0 5.0 15.0 0.00 0.00 0.00 78 1009.9
20260506085343 56 0 5.0 15.0 0.00 0.00 0.00 78 1010.0
20260506084616 56 0 6.0 14.0 0.00 0.00 0.00 78 1010.1
20260506084114 56 0 7.0 14.0 0.00 0.00 0.00 77 1009.9
20260506083841 56 0 6.0 13.0 0.00 0.00 0.00 77 1009.9
20260506083114 57 0 8.0 13.0 0.00 0.00 0.00 77 1009.9
20260506082838 57 0 8.0 13.0 0.00 0.00 0.00 77 1009.9
20260506082116 56 0 7.0 14.0 0.00 0.00 0.00 77 1009.8
20260506081618 56 0 7.0 14.0 0.00 0.00 0.00 78 1009.8
20260506081337 56 0 8.0 15.0 0.00 0.00 0.00 78 1009.9
20260506080634 56 0 7.0 14.0 0.00 0.00 0.00 78 1009.9
20260506080627 56 0 7.0 15.0 0.00 0.00 0.00 78 1009.9
20260506073114 54 0 7.0 15.0 0.00 0.00 0.00 81 1009.7
20260506072613 54 0 7.0 19.0 0.00 0.00 0.00 81 1009.6
20260506072112 54 0 9.0 19.0 0.00 0.00 0.00 81 1009.8
20260506071613 54 0 6.0 13.0 0.00 0.00 0.00 81 1009.7
20260506071336 54 0 6.0 17.0 0.00 0.00 0.00 81 1009.8
20260506070613 54 0 9.0 17.0 0.00 0.00 0.00 81 1009.7
20260506070112 54 0 8.0 18.0 0.00 0.00 0.00 81 1009.6
20260506062111 52 0 6.0 14.0 0.00 0.00 0.00 84 1009.5
20260506061610 52 0 6.0 12.0 0.00 0.00 0.00 84 1009.5
20260506061112 52 0 4.0 14.0 0.00 0.00 0.00 84 1009.5
20260506060610 52 0 8.0 14.0 0.00 0.00 0.00 84 1009.5
20260506060110 52 0 8.0 14.0 0.00 0.00 0.00 84 1009.4
20260506051110 51 0.0 0.0 0.00 0.00 0.00 84 1009.5
20260506050609 51 0.0 0.0 0.00 0.00 0.00 85 1009.4
20260506050108 51 0.0 0.0 0.00 0.00 0.00 85 1009.5
20260506044607 51 0 5.0 7.0 0.00 0.00 0.00 85 1009.6
20260506044104 51 0 5.0 10.0 0.00 0.00 0.00 85 1009.6
20260506044051 51 0 6.0 10.0 0.00 0.00 0.00 85 1009.6
20260506043326 51 0 6.0 9.0 0.00 0.00 0.00 85 1009.6
20260506042604 51 0 4.0 9.0 0.00 0.00 0.00 85 1009.6
20260506042104 50 0 4.0 10.0 0.00 0.00 0.00 85 1009.7
20260506041603 50 0 4.0 10.0 0.00 0.00 0.00 85 1009.6
20260506041102 50 0 5.0 10.0 0.00 0.00 0.00 85 1009.7
20260506040603 50 0 4.0 11.0 0.00 0.00 0.00 85 1009.6
20260506035606 50 0 5.0 12.0 0.00 0.00 0.00 85 1009.6
20260506035103 50 0 6.0 12.0 0.00 0.00 0.00 85 1009.6
20260506034602 50 0 6.0 11.0 0.00 0.00 0.00 85 1009.6
20260506034101 50 0 4.0 11.0 0.00 0.00 0.00 85 1009.7
20260506033601 50 0 4.0 10.0 0.00 0.00 0.00 85 1009.7
20260506033102 50 0 4.0 10.0 0.00 0.00 0.00 85 1009.6
20260506032603 50 0 5.0 11.0 0.00 0.00 0.00 85 1009.7
20260506032327 50 0 5.0 11.0 0.00 0.00 0.00 85 1009.8
20260506031603 50 0 5.0 10.0 0.00 0.00 0.00 85 1009.7
20260506031330 50 0 6.0 10.0 0.00 0.00 0.00 85 1009.7
20260506030603 50 0 4.0 10.0 0.00 0.00 0.00 85 1009.9
20260506030331 50 0 4.0 10.0 0.00 0.00 0.00 85 1009.8
20260506025601 50 0 5.0 9.0 0.00 0.00 0.00 85 1009.9
20260506025557 50 0 5.0 10.0 0.00 0.00 0.00 85 1009.8
20260506024601 50 0 6.0 10.0 0.00 0.00 0.00 85 1010.0
20260506024100 49 0 5.0 10.0 0.00 0.00 0.00 85 1010.0
20260506023559 49 0 5.0 10.0 0.00 0.00 0.00 85 1009.9
20260506023101 49 0 5.0 9.0 0.00 0.00 0.00 85 1009.9
20260506022600 49 0 6.0 9.0 0.00 0.00 0.00 85 1010.0
20260506022100 49 0 5.0 9.0 0.00 0.00 0.00 84 1009.9
20260506021601 49 0 6.0 10.0 0.00 0.00 0.00 85 1010.1
20260506021100 49 0 3.0 10.0 0.00 0.00 0.00 84 1010.0
20260506020600 49 0 5.0 10.0 0.00 0.00 0.00 84 1010.0
20260506020324 49 0 5.0 9.0 0.00 0.00 0.00 84 1010.0
20260506015602 49 0 4.0 7.0 0.00 0.00 0.00 84 1010.1
20260506015059 49 0 4.0 7.0 0.00 0.00 0.00 84 1010.2
20260506014559 49 0 4.0 10.0 0.00 0.00 0.00 84 1010.2
20260506014059 49 0 6.0 10.0 0.00 0.00 0.00 84 1010.1
20260506013558 49 0 2.0 7.0 0.00 0.00 0.00 84 1010.2
20260506013550 49 0 5.0 13.0 0.00 0.00 0.00 84 1010.3
20260506012558 49 0 4.0 13.0 0.00 0.00 0.00 84 1010.2
20260506012320 49 0 5.0 11.0 0.00 0.00 0.00 84 1010.2
20260506011559 49 0 5.0 11.0 0.00 0.00 0.00 84 1010.4
20260506011059 49 0 7.0 10.0 0.00 0.00 0.00 84 1010.3
20260506010558 49 0 5.0 9.0 0.00 0.00 0.00 84 1010.3
20260506010058 49 0 5.0 9.0 0.00 0.00 0.00 84 1010.4
20260506005559 49 0 5.0 10.0 0.00 0.00 0.00 84 1010.4
20260506005324 49 0 3.0 10.0 0.00 0.00 0.00 84 1010.4
20260506004556 49 0 4.0 9.0 0.00 0.00 0.00 84 1010.5
20260506004058 49 0 5.0 10.0 0.00 0.00 0.00 84 1010.6
20260506003557 49 0 6.0 10.0 0.00 0.00 0.00 84 1010.6
20260506003057 49 0 4.0 11.0 0.00 0.00 0.00 84 1010.6
20260506002558 49 0 4.0 11.0 0.00 0.00 0.00 84 1010.7
20260506002057 49 0 5.0 10.0 0.00 0.00 0.00 85 1010.7
20260506001558 49 0 3.0 10.0 0.00 0.00 0.00 85 1010.9
20260506001548 49 0 4.0 10.0 0.00 0.00 0.00 85 1010.9
20260506000556 48 0 4.0 7.0 0.00 0.00 0.00 85 1010.8
20260506000057 48 0 4.0 12.0 0.00 0.00 0.00 85 1011.0
20260505235558 48 0 6.0 12.0 0.00 0.00 0.00 85 1011.0
20260505235327 48 0 4.0 9.0 0.00 0.00 0.00 85 1011.0
20260505234824 48 0 5.0 9.0 0.00 0.00 0.00 84 1011.1
20260505234056 49 0 4.0 9.0 0.00 0.00 0.00 85 1011.1